sat.trackr.live / text

‹ back to catalog

STARLINK-6061

NORAD 56795 · 2023-078AE

PAYLOAD ACTIVE UNKNOWN

§ Identity

Operator
Country
US
Launch date
2023-05-31
Launch site
AFWTR
Launch vehicle
Mass (kg)
RCS (m²)

Purposes: comms

External: N2YO · Heavens-Above · Gunter

§ Orbital elements

Epoch: 2026-09-20T22:00:03.000096Z

Period
95.69 min
Inclination
70.0005°
Eccentricity
0.0004855
Mean motion
15.04899042 rev/d
Perigee alt
548.5 km
Apogee alt
555.2 km
Semi-major
6,930.0 km
B*
8.0839e-4
RAAN
191.9846°
Arg perigee
288.5834°
Mean anomaly
29.3218°
Rev number
576

§ Raw data

STARLINK-60611 56795U 23078AE  26263.91670139  .00011385  00000+0  80839-3 0  99952 56795  70.0005 191.9846 0004855 288.5834  29.3218 15.04899042  5769

JSON: /api/v1/satellites/56795 · /tle

For live sub-satellite position, see the globe view (requires WebGL).

§ Visibility from observer

Set your observer location to see the next 7 days of passes ≥ 10°. The values pass through the URL so the page stays shareable.

No JS? Fill the form by hand. The geolocation button needs JavaScript.